{"data":{"norad_id":51743,"intl_designator":"2022-016AF","name":"STARLINK-3512","alt_names":[],"object_type":"PAYLOAD","status":"ACTIVE","operator":null,"country":"US","launch_date":"2022-02-21","launch_site_code":"AFETR","launch_vehicle":null,"mission":null,"orbit_class":"UNKNOWN","rcs_meters":null,"size_class":null,"mass_kg":null,"dimensions":null,"purposes":["comms"],"wikipedia_slug":null,"has_3d_model":false,"image_url":null,"decayed_at":null,"tle_current":{"epoch":"2026-05-24T21:18:43.039296Z","epoch_age_seconds":78654,"freshness":"FRESH","line1":"1 51743U 22016AF  26144.88799814  .00000586  00000+0  54934-4 0  9999","line2":"2 51743  53.2143 326.9781 0001318  88.4962 271.6181 15.08839267235203","mean_motion":15.08839267,"eccentricity":0.0001318,"inclination_deg":53.2143,"raan_deg":326.9781,"arg_perigee_deg":88.4962,"mean_anomaly_deg":271.6181,"bstar":5.4934e-5,"rev_number":23520,"period_min":95.437601041702,"perigee_km":538.83385252221,"apogee_km":540.65740638333,"semimajor_km":6917.8826294528,"source":"CELESTRAK","updated_at":"2026-05-25T13:38:16.944936Z"}}}